Location: *
(60.1759°S, 155.0663°W)
Time: 22:38:38
(UTC+00:00)

ATLAS CENTAUR R/B - Pass Details

Date: 17 September 2019
Orbit: 231 x 6481 km, 57.3° (Epoch: 17 October)

Event Time Altitude Azimuth Distance (km) Brightness Sun altitude
Exits shadow 14:26:31 31° 339° (NNW) 639 1.8 -15.1°
Maximum altitude 14:27:03 35° 9° (N) 546 1.7 -15.0°
Drops below altitude 10° 14:29:01 10° 80° (E) 1,075 4.2 -14.8°
Sets 14:30:35 0° 91° (E) 1,815 5.9 -14.6°
